Tracking 31027 objects as of 19-Jul-2025
HD Live streaming from Space Station
objects crossing your sky now

STARLINK-4126

Track STARLINK-4126 now!
10-day predictions
STARLINK-4126 is classified as:


NORAD ID: 52867
Int'l Code: 2022-062AP
Perigee: 545.9 km
Apogee: 547.8 km
Inclination: 53.2 °
Period: 95.4 minutes
Semi major axis: 6917 km
RCS: Unknown
Launch date: June 17, 2022
Source: United States (US)
Launch site: AIR FORCE EASTERN TEST RANGE (AFETR)
Your satellite tracking list
STARLINK-4010
Track 1 satellite(s)




NASA's NSSDC Master Catalog

Two Line Element Set (TLE):
1 52867U 22062AP  25199.68805471  .00000752  00000-0  65318-4 0  9996
2 52867  53.2198 354.5960 0001366  89.1807 270.9342 15.08838167171091
Source of the keplerian elements: AFSPC